CW2613 Weather Reports


Display with metric or nautical units.
time (UTC)temp
F
wind
direction
speed
MPH
gust
MPH
rain 1hr
in
rain 24hr
in
rain mn
in
humidity
%
barometer
mb
20260906184538 92 160 0.0 0.0 0.00 0.11 0.01 61 1010.9
20260906183035 93 195 0.0 2.0 0.00 0.11 0.01 60 1011.0
20260906181534 92 148 0.0 0.0 0.00 0.11 0.01 61 1011.2
20260906180023 92 184 0.0 1.0 0.00 0.11 0.01 60 1011.2
20260906174525 90 152 0.0 0.0 0.00 0.11 0.01 61 1011.1
20260906173011 91 144 0.0 0.0 0.00 0.11 0.01 61 1011.1
20260906171507 89 155 0.0 0.0 0.00 0.11 0.01 57 1011.2
20260906170002 90 150 0.0 0.0 0.00 0.11 0.01 59 1011.3
20260906164558 89 162 0.0 1.0 0.00 0.11 0.01 55 1011.2
20260906163054 88 155 0.0 1.0 0.00 0.11 0.01 56 1011.4
20260906161549 90 136 0.0 0.0 0.00 0.11 0.01 57 1011.7
20260906160045 88 193 0.0 0.0 0.00 0.11 0.01 52 1011.8
20260906154540 87 151 0.0 0.0 0.00 0.11 0.01 50 1012.1
20260906153035 87 156 0.0 1.0 0.00 0.11 0.01 48 1012.2
20260906151531 87 132 0.0 0.0 0.00 0.11 0.01 48 1012.4
20260906150028 87 117 0.0 0.0 0.00 0.11 0.01 44 1012.4
20260906144522 86 171 0.0 1.0 0.00 0.11 0.01 43 1012.5
20260906143017 85 160 0.0 0.0 0.00 0.11 0.01 35 1012.4
20260906141522 85 146 0.0 1.0 0.00 0.11 0.01 36 1012.2
20260906140009 84 154 0.0 3.0 0.00 0.11 0.01 31 1012.1
20260906134505 83 158 0.0 1.0 0.00 0.11 0.01 19 1012.2
20260906133100 82 143 0.0 3.0 0.00 0.11 0.01 17 1012.2
20260906131556 81 141 0.0 3.0 0.01 0.11 0.01 2 1012.3
20260906130114 80 153 0.0 1.0 0.01 0.11 0.01 1 1012.2
20260906124549 79 148 0.0 0.0 0.01 0.11 0.01 1 1012.3
20260906123041 78 163 0.0 0.0 0.01 0.11 0.01 1 1012.2
20260906121537 77 153 0.0 0.0 0.00 0.10 0.00 1 1012.1
20260906120032 76 153 0.0 0.0 0.00 0.10 0.00 1 1011.9
20260906114529 75 158 0.0 0.0 0.00 0.10 0.00 1 1011.8
20260906113024 0 0.0 0.0 0.00 0.10 0.00 1011.5
20260906111520 0 0.0 0.0 0.00 0.10 0.00 1011.2
20260906110017 0 0.0 0.0 0.00 0.10 0.00 1011.1
20260906104512 0 0.0 0.0 0.00 0.10 0.00 1010.8
20260906103015 0 0.0 0.0 0.00 0.10 0.00 1010.5
20260906101502 0 0.0 0.0 0.00 0.10 0.00 1010.4
20260906100059 0 0.0 0.0 0.00 0.10 0.00 1010.3
20260906094557 0 0.0 0.0 0.00 0.10 0.00 1010.3
20260906093054 0 0.0 0.0 0.00 0.10 0.00 1010.1
20260906091545 0 0.0 0.0 0.00 0.10 0.00 1009.9
20260906090041 0 0.0 0.0 0.00 0.10 0.00 1009.7
20260906084537 0 0.0 0.0 0.00 0.10 0.00 1009.9
20260906083032 0 0.0 0.0 0.00 0.10 0.00 1009.8
20260906081528 0 0.0 0.0 0.00 0.10 0.00 1009.9
20260906080028 0 0.0 0.0 0.00 0.10 0.00 1009.9
20260906074519 0 0.0 0.0 0.00 0.10 0.00 1009.9
20260906073015 0 0.0 0.0 0.00 0.10 0.00 1010.0
20260906071510 0 0.0 0.0 0.00 0.10 0.00 1009.8
20260906070006 0 0.0 0.0 0.00 0.10 0.00 1010.1
20260906064502 0 0.0 0.0 0.00 0.10 0.00 1010.4
20260906063058 0 0.0 0.0 0.00 0.10 0.00 1010.7
20260906061556 0 0.0 0.0 0.00 0.10 0.00 1011.0
20260906060049 0 0.0 0.0 0.00 0.10 0.00 1011.3
20260906054546 0 0.0 0.0 0.00 0.10 0.00 1011.6
20260906053040 0 0.0 0.0 0.00 0.10 0.00 1011.8
20260906051535 0 0.0 0.0 0.00 0.10 0.00 1011.7
20260906050033 0 0.0 0.0 0.00 0.10 0.00 1011.8
20260906044528 0 0.0 0.0 0.00 0.10 0.00 1012.0
20260906043025 0 0.0 0.0 0.00 0.10 0.00 1012.0
20260906041518 0 0.0 0.0 0.00 0.10 0.00 1012.0
20260906040014 0 0.0 0.0 0.00 0.10 0.00 1012.0
20260906034509 0 0.0 0.0 0.00 0.10 0.10 1011.8
20260906033005 0 0.0 0.0 0.00 0.10 0.10 1011.8
20260906031500 75 160 0.0 0.0 0.00 0.10 0.10 1 1012.2
20260906030059 75 157 0.0 0.0 0.00 0.10 0.10 1 1012.2
20260906024555 75 152 0.0 0.0 0.01 0.10 0.10 1 1012.3
20260906023052 75 161 0.0 0.0 0.02 0.10 0.10 1 1012.1
20260906021547 75 156 0.0 0.0 0.05 0.10 0.10 1 1011.9
20260906020041 76 195 0.0 0.0 0.06 0.10 0.10 1 1012.0
20260906014547 75 151 0.0 0.0 0.05 0.09 0.09 1 1012.1
20260906013041 75 173 0.0 0.0 0.05 0.08 0.08 1 1012.5
20260906011532 75 173 0.0 0.0 0.04 0.05 0.05 1 1012.9
20260906010023 75 174 0.0 0.0 0.03 0.04 0.04 1 1013.2
20260906004519 75 178 0.0 0.0 0.04 0.04 0.04 1 1012.9
20260906003021 75 166 0.0 0.0 0.03 0.03 0.03 1 1012.7
20260906001513 75 170 0.0 4.0 0.01 0.01 0.01 1 1012.1
20260906000007 76 124 0.0 7.0 0.01 0.01 0.01 1 1012.8
20260905234500 77 147 0.0 7.0 0.00 0.00 0.00 1 1013.0
20260905233113 79 162 0.0 8.0 0.00 0.00 0.00 11 1012.1
20260905231552 81 304 0.0 8.0 0.00 0.00 0.00 38 1012.3
20260905230047 83 77 0.0 7.0 0.00 0.00 0.00 52 1012.0
20260905224543 86 161 0.0 0.0 0.00 0.00 0.00 48 1011.4
20260905223039 86 307 0.0 3.0 0.00 0.00 0.00 53 1011.2
20260905221534 87 241 0.0 1.0 0.00 0.00 0.00 56 1010.8
20260905220030 88 161 0.0 2.0 0.00 0.00 0.00 57 1010.9
20260905214525 91 188 0.0 0.0 0.00 0.00 0.00 61 1010.4
20260905213020 91 162 0.0 4.0 0.00 0.00 0.00 61 1010.8
20260905211516 91 196 0.0 7.0 0.00 0.00 0.00 61 1010.7
20260905210013 92 220 0.0 0.0 0.00 0.00 0.00 61 1010.5
20260905204510 92 173 0.0 1.0 0.00 0.00 0.00 61 1010.3
20260905203002 93 158 0.0 0.0 0.00 0.00 0.00 60 1010.3
20260905201600 94 215 0.0 0.0 0.00 0.00 0.00 59 1010.3
20260905200057 93 184 0.0 1.0 0.00 0.00 0.00 59 1010.4
20260905194549 92 163 0.0 1.0 0.00 0.00 0.00 60 1010.9
20260905193047 93 188 0.0 4.0 0.00 0.00 0.00 60 1011.0
20260905191543 94 193 0.0 0.0 0.00 0.00 0.00 54 1011.4
20260905190046 94 139 0.0 0.0 0.00 0.00 0.00 56 1011.2